^^
Datos históricos de la estación: Murcia-Puente Tocinos
Diario Informe para Junio 14, 2019 Unidades:  Métrico    Inglés   Ambas
Diario Semanal Mensual Anual Configurable
  Máximo: Mínimo: Media:
Temperatura: 29.7 °C 19.4 °C 24.5 °C
Punto de rocio: 17.7 °C 11.2 °C 14.3 °C
Humedad: 86% 35% 55%
Velocidad viento: 20.9km/h 0.0km/h 9.7km/h
Racha viento: 35.4km/h - -
Viento- - South
Presión: 1011.5 hPa 1007.2 hPa -
Precipitación: 1.5 mm    
Historical Graphs
 
 
Tabla de datos para Junio 14, 2019
Hora Temperatura Punto de rocio Presión Viento Velocidad viento Racha viento Humedad Intensidad lluvia(por hora) Nubes
00:02 20.9 °C 14.1 °C 1009.0 hPa Calm   5.6 km/h 65% 0.0 mm CLR
00:07 20.9 °C 14.1 °C 1009.0 hPa Calm   3.7 km/h 65% 0.0 mm CLR
00:14 20.9 °C 13.8 °C 1009.0 hPa WSW 2.3 km/h   64% 0.0 mm CLR
00:20 21.0 °C 13.9 °C 1008.7 hPa Calm   7.4 km/h 64% 0.0 mm CLR
00:29 21.1 °C 13.8 °C 1008.7 hPa West 3.9 km/h 5.6 km/h 63% 0.0 mm CLR
00:37 21.1 °C 13.8 °C 1008.7 hPa West 3.9 km/h 9.3 km/h 63% 0.0 mm CLR
00:44 21.1 °C 13.6 °C 1008.7 hPa SW 3.9 km/h 13.0 km/h 62% 0.0 mm CLR
00:51 21.1 °C 13.6 °C 1008.6 hPa West 7.6 km/h 9.3 km/h 62% 0.0 mm CLR
00:56 21.1 °C 13.6 °C 1008.6 hPa SW 7.6 km/h 14.0 km/h 62% 0.0 mm CLR
01:03 21.1 °C 13.6 °C 1008.6 hPa SW 8.4 km/h 13.0 km/h 62% 0.0 mm CLR
01:09 21.1 °C 13.6 °C 1008.6 hPa SW 8.7 km/h 14.8 km/h 62% 0.0 mm CLR
01:16 21.1 °C 13.1 °C 1008.6 hPa SW 8.7 km/h 14.8 km/h 60% 0.0 mm CLR
01:22 21.1 °C 13.1 °C 1008.4 hPa WSW 10.3 km/h 16.7 km/h 60% 0.0 mm CLR
01:31 21.0 °C 12.9 °C 1008.4 hPa SW 10.3 km/h 14.8 km/h 60% 0.0 mm CLR
01:40 20.9 °C 12.8 °C 1008.3 hPa SSW 10.3 km/h 11.1 km/h 60% 0.0 mm CLR
01:50 21.0 °C 12.7 °C 1008.2 hPa SW 10.3 km/h 16.7 km/h 59% 0.0 mm CLR
01:59 21.1 °C 12.8 °C 1008.2 hPa SW 11.1 km/h 14.8 km/h 59% 0.0 mm CLR
02:04 21.1 °C 12.8 °C 1008.0 hPa SW 11.1 km/h 13.7 km/h 59% 0.0 mm CLR
02:09 21.1 °C 12.5 °C 1008.0 hPa SW 10.0 km/h 11.1 km/h 58% 0.0 mm CLR
02:15 21.1 °C 12.5 °C 1008.0 hPa SSW 9.7 km/h 16.1 km/h 58% 0.0 mm CLR
02:20 21.1 °C 12.5 °C 1008.2 hPa SSW 11.9 km/h 18.5 km/h 58% 0.0 mm CLR
02:25 21.2 °C 12.6 °C 1008.2 hPa SSW 11.3 km/h 19.3 km/h 58% 0.0 mm CLR
02:30 21.2 °C 12.6 °C 1008.2 hPa SSW 11.3 km/h 22.5 km/h 58% 0.0 mm CLR
02:35 21.3 °C 12.7 °C 1008.3 hPa SSW 11.3 km/h 22.5 km/h 58% 0.0 mm CLR
02:40 21.4 °C 12.8 °C 1008.3 hPa SSW 12.9 km/h 27.4 km/h 58% 0.0 mm CLR
02:45 21.4 °C 12.8 °C 1008.3 hPa SSW 12.9 km/h 25.7 km/h 58% 0.0 mm CLR
02:50 21.6 °C 12.9 °C 1008.3 hPa SW 12.9 km/h 25.7 km/h 58% 0.0 mm CLR
02:55 21.6 °C 13.0 °C 1008.3 hPa SW 12.9 km/h 29.0 km/h 58% 0.0 mm CLR
03:00 21.6 °C 13.0 °C 1008.3 hPa WSW 16.1 km/h 35.4 km/h 58% 0.0 mm CLR
03:05 21.6 °C 13.5 °C 1007.5 hPa WSW 16.1 km/h 33.8 km/h 60% 0.0 mm CLR
03:10 21.6 °C 14.0 °C 1007.5 hPa WSW 16.1 km/h 25.7 km/h 62% 0.0 mm CLR
03:15 21.6 °C 14.3 °C 1007.5 hPa SW 16.1 km/h 20.9 km/h 63% 0.0 mm CLR
03:20 21.6 °C 14.5 °C 1007.9 hPa South 11.9 km/h 16.7 km/h 64% 0.0 mm CLR
03:25 21.6 °C 14.7 °C 1007.9 hPa South 11.3 km/h 22.5 km/h 65% 0.0 mm CLR
03:30 21.6 °C 15.0 °C 1007.9 hPa SSW 11.1 km/h 14.8 km/h 66% 0.0 mm CLR
03:35 21.5 °C 14.9 °C 1007.7 hPa SSW 11.3 km/h 19.3 km/h 66% 0.0 mm CLR
03:40 21.5 °C 14.9 °C 1007.7 hPa SSW 11.9 km/h 22.2 km/h 66% 0.0 mm CLR
03:45 21.4 °C 14.8 °C 1007.7 hPa SSW 11.9 km/h 22.2 km/h 66% 0.0 mm CLR
03:50 21.3 °C 14.9 °C 1007.2 hPa SSW 14.5 km/h 20.9 km/h 67% 0.0 mm CLR
03:55 21.2 °C 14.8 °C 1007.2 hPa SSW 14.5 km/h 20.9 km/h 67% 0.0 mm CLR
04:00 21.2 °C 14.8 °C 1007.2 hPa South 12.9 km/h 20.9 km/h 67% 0.0 mm CLR
04:05 21.2 °C 14.8 °C 1007.6 hPa South 12.9 km/h 19.3 km/h 67% 0.0 mm CLR
04:10 21.2 °C 14.8 °C 1007.6 hPa South 11.3 km/h 19.3 km/h 67% 0.0 mm CLR
04:15 21.2 °C 14.8 °C 1007.6 hPa South 11.3 km/h 12.9 km/h 67% 0.0 mm CLR
04:20 21.1 °C 14.9 °C 1007.2 hPa WSW 8.4 km/h 9.5 km/h 68% 0.0 mm CLR
04:25 21.1 °C 15.2 °C 1007.2 hPa SW 8.0 km/h 12.9 km/h 69% 0.0 mm CLR
04:30 21.0 °C 15.1 °C 1007.2 hPa SSW 8.4 km/h 11.1 km/h 69% 0.0 mm CLR
04:35 21.1 °C 15.2 °C 1007.3 hPa SW 8.0 km/h 16.1 km/h 69% 0.0 mm CLR
04:40 21.1 °C 15.2 °C 1007.3 hPa SSW 8.0 km/h 16.1 km/h 69% 0.0 mm CLR
04:45 21.1 °C 15.2 °C 1007.3 hPa South 8.0 km/h 14.5 km/h 69% 0.0 mm CLR
04:50 21.1 °C 15.2 °C 1007.4 hPa SSE 8.0 km/h 9.7 km/h 69% 0.0 mm CLR
04:55 21.1 °C 15.2 °C 1007.4 hPa South 8.0 km/h 11.3 km/h 69% 0.0 mm CLR
05:00 21.1 °C 15.2 °C 1007.4 hPa SW 8.0 km/h 12.9 km/h 69% 0.0 mm CLR
05:05 21.1 °C 15.2 °C 1007.7 hPa SSW 8.0 km/h 16.1 km/h 69% 0.0 mm CLR
05:10 21.1 °C 15.2 °C 1007.7 hPa South 9.5 km/h 13.0 km/h 69% 0.0 mm CLR
05:15 21.1 °C 15.4 °C 1007.7 hPa South 9.5 km/h 15.6 km/h 70% 0.0 mm CLR
05:20 21.0 °C 15.3 °C 1007.8 hPa SSW 9.5 km/h 13.0 km/h 70% 0.0 mm CLR
05:25 21.0 °C 15.3 °C 1007.8 hPa SSW 9.7 km/h 11.3 km/h 70% 0.0 mm CLR
05:30 21.1 °C 15.4 °C 1007.8 hPa SW 8.0 km/h 11.3 km/h 70% 0.0 mm CLR
05:35 21.1 °C 15.2 °C 1007.8 hPa SW 8.0 km/h 12.9 km/h 69% 0.0 mm CLR
05:40 21.2 °C 15.3 °C 1007.8 hPa South 8.0 km/h 14.5 km/h 69% 0.0 mm CLR
05:45 21.3 °C 15.1 °C 1007.8 hPa South 8.0 km/h 14.5 km/h 68% 0.0 mm CLR
05:50 21.3 °C 15.2 °C 1008.0 hPa South 8.4 km/h 9.3 km/h 68% 0.0 mm CLR
05:55 21.3 °C 15.1 °C 1008.0 hPa South 8.0 km/h 9.7 km/h 68% 0.0 mm CLR
06:00 21.2 °C 15.1 °C 1008.0 hPa South 8.0 km/h 9.7 km/h 68% 0.0 mm CLR
06:05 21.2 °C 14.8 °C 1008.3 hPa South 8.0 km/h 8.0 km/h 67% 0.0 mm CLR
06:10 21.2 °C 14.8 °C 1008.3 hPa SSW 3.2 km/h 11.3 km/h 67% 0.0 mm CLR
06:15 21.2 °C 15.1 °C 1008.3 hPa SSW 3.2 km/h 8.0 km/h 68% 0.0 mm CLR
06:20 21.2 °C 15.1 °C 1008.5 hPa WSW 6.4 km/h 7.4 km/h 68% 0.0 mm CLR
06:25 21.2 °C 15.1 °C 1008.5 hPa SW 8.0 km/h 8.0 km/h 68% 0.0 mm CLR
06:30 21.2 °C 14.8 °C 1008.5 hPa SW 3.2 km/h 9.7 km/h 67% 0.0 mm CLR
06:35 21.2 °C 14.8 °C 1008.6 hPa SSW 3.2 km/h 9.7 km/h 67% 0.0 mm CLR
06:40 21.2 °C 14.8 °C 1008.6 hPa SSW 4.8 km/h 8.0 km/h 67% 0.0 mm CLR
06:45 21.3 °C 15.1 °C 1008.6 hPa SW 4.8 km/h 8.0 km/h 68% 0.0 mm CLR
06:50 21.3 °C 14.9 °C 1008.9 hPa SW 3.2 km/h 8.0 km/h 67% 0.0 mm CLR
06:55 21.3 °C 14.9 °C 1008.9 hPa WSW 3.2 km/h 9.7 km/h 67% 0.0 mm CLR
07:00 21.3 °C 14.9 °C 1008.9 hPa WSW 3.2 km/h 8.0 km/h 67% 0.0 mm CLR
07:05 21.3 °C 14.9 °C 1009.0 hPa WSW 3.2 km/h 8.0 km/h 67% 0.0 mm CLR
07:10 21.4 °C 15.0 °C 1009.0 hPa WSW 3.2 km/h 9.7 km/h 67% 0.0 mm CLR
07:15 21.4 °C 15.0 °C 1009.0 hPa WSW 3.2 km/h 12.9 km/h 67% 0.0 mm CLR
07:20 21.4 °C 14.8 °C 1009.2 hPa SW 8.0 km/h 11.3 km/h 66% 0.0 mm CLR
07:25 21.5 °C 14.9 °C 1009.2 hPa WSW 8.0 km/h 11.3 km/h 66% 0.0 mm CLR
07:30 21.4 °C 14.8 °C 1009.2 hPa WSW 4.8 km/h 9.7 km/h 66% 0.0 mm CLR
07:35 21.5 °C 14.9 °C 1009.1 hPa West 5.8 km/h 11.1 km/h 66% 0.0 mm CLR
07:40 21.4 °C 14.8 °C 1009.1 hPa West 4.8 km/h 12.9 km/h 66% 0.0 mm CLR
07:45 21.4 °C 14.8 °C 1009.1 hPa West 5.8 km/h 14.8 km/h 66% 0.0 mm CLR
07:50 21.4 °C 14.8 °C 1009.3 hPa WSW 9.7 km/h 22.5 km/h 66% 0.0 mm CLR
07:55 21.5 °C 14.9 °C 1009.3 hPa WSW 9.7 km/h 16.1 km/h 66% 0.0 mm CLR
08:00 21.4 °C 15.1 °C 1009.3 hPa WSW 11.3 km/h 16.1 km/h 67% 0.0 mm CLR
08:05 21.4 °C 15.0 °C 1009.5 hPa SW 11.3 km/h 17.7 km/h 67% 0.0 mm CLR
08:10 21.4 °C 15.0 °C 1009.5 hPa West 8.4 km/h 11.1 km/h 67% 0.0 mm CLR
08:15 21.4 °C 15.0 °C 1009.5 hPa WSW 8.0 km/h 14.5 km/h 67% 0.0 mm CLR
08:20 21.3 °C 15.2 °C 1009.6 hPa WSW 8.0 km/h 22.5 km/h 68% 0.0 mm CLR
08:25 21.3 °C 15.3 °C 1009.6 hPa WSW 8.0 km/h 22.5 km/h 69% 0.0 mm CLR
08:30 21.2 °C 15.3 °C 1009.6 hPa SW 13.0 km/h 18.5 km/h 69% 0.0 mm CLR
08:35 21.0 °C 15.8 °C 1009.9 hPa WSW 12.9 km/h 25.7 km/h 72% 0.0 mm CLR
08:40 20.7 °C 16.1 °C 1009.9 hPa WSW 12.9 km/h 19.3 km/h 75% 0.0 mm CLR
08:45 20.4 °C 16.2 °C 1009.9 hPa WSW 12.9 km/h 16.1 km/h 77% 0.0 mm RA
08:50 20.1 °C 16.6 °C 1010.1 hPa West 9.7 km/h 12.9 km/h 80% 0.5 mm RA
08:55 19.8 °C 16.6 °C 1010.1 hPa West 9.7 km/h 14.5 km/h 82% 0.0 mm RA
09:00 19.6 °C 16.8 °C 1010.1 hPa West 8.0 km/h 11.3 km/h 84% 0.0 mm RA
09:05 19.5 °C 16.7 °C 1010.4 hPa West 8.0 km/h 11.3 km/h 84% 0.0 mm RA
09:10 19.4 °C 16.8 °C 1010.4 hPa West 7.6 km/h 7.4 km/h 85% 1.0 mm CLR
09:15 19.4 °C 16.8 °C 1010.4 hPa West 8.0 km/h 9.7 km/h 85% 0.0 mm
09:20 19.4 °C 16.8 °C 1010.4 hPa West 4.8 km/h 8.0 km/h 85% 0.0 mm
09:25 19.5 °C 16.9 °C 1010.4 hPa WNW 5.0 km/h 9.3 km/h 85% 1.0 mm CLR
09:30 19.6 °C 17.2 °C 1010.4 hPa West 4.8 km/h 9.7 km/h 86% 0.5 mm RA
09:35 19.6 °C 17.2 °C 1010.7 hPa WSW 4.8 km/h 12.9 km/h 86% 0.0 mm RA
09:40 19.6 °C 17.0 °C 1010.7 hPa SW 8.0 km/h 16.1 km/h 85% 0.0 mm
09:45 19.7 °C 17.1 °C 1010.7 hPa SSW 8.0 km/h 16.1 km/h 85% 0.0 mm
09:50 19.8 °C 17.2 °C 1010.7 hPa South 9.7 km/h 14.5 km/h 85% 0.0 mm
09:55 19.9 °C 17.3 °C 1010.7 hPa South 9.7 km/h 12.9 km/h 85% 0.0 mm
10:00 19.9 °C 17.3 °C 1010.7 hPa SSW 8.0 km/h 11.3 km/h 85% 0.0 mm
10:05 20.0 °C 17.6 °C 1010.8 hPa SSW 8.0 km/h 11.3 km/h 86% 0.0 mm
10:10 20.0 °C 17.2 °C 1010.8 hPa SSW 8.0 km/h 11.3 km/h 84% 0.0 mm
10:15 20.1 °C 17.1 °C 1010.8 hPa SSW 8.0 km/h 12.9 km/h 83% 0.0 mm
10:20 20.3 °C 17.3 °C 1011.0 hPa WSW 6.9 km/h 13.0 km/h 83% 0.5 mm CLR
10:25 20.4 °C 17.5 °C 1011.0 hPa SW 8.0 km/h 14.5 km/h 83% 0.0 mm
10:30 20.7 °C 17.3 °C 1011.0 hPa SW 8.0 km/h 16.1 km/h 81% 0.0 mm
10:35 20.9 °C 17.2 °C 1011.0 hPa SSW 8.0 km/h 16.1 km/h 79% 0.0 mm CLR
10:40 21.1 °C 17.1 °C 1011.0 hPa SW 9.7 km/h 16.1 km/h 78% 0.0 mm CLR
10:45 21.4 °C 17.4 °C 1011.0 hPa SSW 10.0 km/h 11.1 km/h 78% 0.0 mm CLR
10:50 21.7 °C 17.5 °C 1010.7 hPa West 6.9 km/h 11.1 km/h 77% 0.0 mm CLR
10:55 21.9 °C 17.3 °C 1010.7 hPa SW 8.0 km/h 12.9 km/h 75% 0.0 mm CLR
11:00 22.1 °C 17.7 °C 1010.7 hPa WSW 8.0 km/h 9.7 km/h 76% 0.0 mm CLR
11:05 22.4 °C 17.3 °C 1010.8 hPa SSW 8.0 km/h 8.0 km/h 73% 0.0 mm CLR
11:10 22.6 °C 17.3 °C 1010.8 hPa South 4.8 km/h 14.5 km/h 72% 0.0 mm CLR
11:15 22.8 °C 17.0 °C 1010.8 hPa SSE 4.8 km/h 11.3 km/h 70% 0.0 mm CLR
11:20 23.0 °C 17.0 °C 1010.8 hPa South 3.2 km/h 9.7 km/h 69% 0.0 mm CLR
11:25 23.3 °C 17.1 °C 1010.8 hPa South 3.2 km/h 9.7 km/h 68% 0.0 mm CLR
11:30 23.4 °C 16.4 °C 1010.8 hPa SSW 3.2 km/h 11.3 km/h 65% 0.0 mm CLR
11:35 23.6 °C 16.9 °C 1010.8 hPa WNW 4.7 km/h 9.3 km/h 66% 0.0 mm CLR
11:40 23.7 °C 16.0 °C 1010.8 hPa West 4.8 km/h 16.1 km/h 62% 0.0 mm CLR
11:45 23.7 °C 16.5 °C 1010.8 hPa West 4.8 km/h 11.3 km/h 64% 0.0 mm CLR
11:50 23.8 °C 16.6 °C 1010.9 hPa NW 6.4 km/h 5.6 km/h 64% 0.0 mm CLR
11:55 24.1 °C 16.4 °C 1010.9 hPa WNW 8.0 km/h 11.3 km/h 62% 0.0 mm CLR
12:00 24.3 °C 16.1 °C 1010.9 hPa WNW 4.8 km/h 14.5 km/h 60% 0.0 mm CLR
12:05 24.2 °C 15.9 °C 1010.8 hPa West 4.8 km/h 14.5 km/h 60% 0.0 mm CLR
12:10 24.6 °C 16.0 °C 1010.8 hPa WSW 4.8 km/h 9.7 km/h 59% 0.0 mm CLR
12:15 24.8 °C 16.0 °C 1010.8 hPa SSW 4.8 km/h 8.0 km/h 58% 0.0 mm CLR
12:20 25.1 °C 16.3 °C 1010.7 hPa SSE 4.8 km/h 12.9 km/h 58% 0.0 mm CLR
12:25 25.3 °C 16.2 °C 1010.7 hPa SSW 4.8 km/h 11.3 km/h 57% 0.0 mm CLR
12:30 25.6 °C 16.2 °C 1010.7 hPa South 4.8 km/h 9.7 km/h 56% 0.0 mm CLR
12:35 25.8 °C 15.8 °C 1010.5 hPa East 4.8 km/h 11.3 km/h 54% 0.0 mm CLR
12:40 26.1 °C 15.2 °C 1010.5 hPa East 4.8 km/h 12.9 km/h 51% 0.0 mm CLR
12:45 26.1 °C 14.9 °C 1010.5 hPa ESE 4.8 km/h 12.9 km/h 50% 0.0 mm CLR
12:50 26.3 °C 14.7 °C 1010.4 hPa South 5.8 km/h 9.3 km/h 49% 0.0 mm CLR
12:55 26.4 °C 13.9 °C 1010.4 hPa SSE 4.8 km/h 11.3 km/h 46% 0.0 mm CLR
13:00 26.7 °C 13.1 °C 1010.4 hPa SW 3.2 km/h 11.3 km/h 43% 0.0 mm CLR
13:05 26.9 °C 12.2 °C 1010.4 hPa WSW 3.2 km/h 16.1 km/h 40% 0.0 mm CLR
13:10 26.9 °C 12.2 °C 1010.4 hPa SW 9.5 km/h 14.8 km/h 40% 0.0 mm CLR
13:15 26.9 °C 11.8 °C 1010.4 hPa SW 9.7 km/h 14.5 km/h 39% 0.0 mm CLR
13:20 27.1 °C 12.3 °C 1010.3 hPa SSW 8.0 km/h 8.0 km/h 40% 0.0 mm CLR
13:25 27.4 °C 12.2 °C 1010.3 hPa SE 8.0 km/h 8.0 km/h 39% 0.0 mm CLR
13:30 27.8 °C 12.2 °C 1010.3 hPa East 3.2 km/h 9.7 km/h 38% 0.0 mm CLR
13:35 28.1 °C 12.1 °C 1010.1 hPa SSW 3.2 km/h 14.5 km/h 37% 0.0 mm CLR
13:40 28.1 °C 11.2 °C 1010.1 hPa West 8.0 km/h 14.5 km/h 35% 0.0 mm CLR
13:45 28.2 °C 11.3 °C 1010.1 hPa WSW 8.0 km/h 11.3 km/h 35% 0.0 mm CLR
13:50 28.3 °C 12.2 °C 1010.0 hPa South 8.0 km/h 16.1 km/h 37% 0.0 mm CLR
13:55 28.4 °C 13.1 °C 1010.0 hPa East 8.0 km/h 14.5 km/h 39% 0.0 mm CLR
14:00 28.5 °C 13.2 °C 1010.0 hPa East 4.8 km/h 14.5 km/h 39% 0.0 mm CLR
14:05 28.6 °C 14.8 °C 1009.9 hPa ESE 4.8 km/h 14.5 km/h 43% 0.0 mm CLR
14:10 28.4 °C 15.0 °C 1009.9 hPa East 8.0 km/h 12.9 km/h 44% 0.0 mm CLR
14:15 28.4 °C 15.0 °C 1009.9 hPa ENE 8.0 km/h 16.1 km/h 44% 0.0 mm CLR
14:20 28.6 °C 16.2 °C 1009.8 hPa SE 9.7 km/h 16.1 km/h 47% 0.0 mm CLR
14:25 28.6 °C 16.5 °C 1009.8 hPa SSE 9.7 km/h 20.9 km/h 48% 0.0 mm CLR
14:30 28.5 °C 16.4 °C 1009.8 hPa SE 11.3 km/h 20.9 km/h 48% 0.0 mm CLR
14:35 28.4 °C 16.3 °C 1009.7 hPa ESE 11.3 km/h 22.5 km/h 48% 0.0 mm CLR
14:40 28.4 °C 16.3 °C 1009.7 hPa ESE 11.3 km/h 22.5 km/h 48% 0.0 mm CLR
14:45 28.5 °C 16.4 °C 1009.7 hPa ESE 11.3 km/h 22.5 km/h 48% 0.0 mm CLR
14:50 28.6 °C 16.2 °C 1009.5 hPa ESE 12.9 km/h 19.3 km/h 47% 0.0 mm CLR
14:55 28.7 °C 15.6 °C 1009.5 hPa SE 12.9 km/h 20.9 km/h 45% 0.0 mm CLR
15:00 28.7 °C 14.9 °C 1009.5 hPa ESE 12.9 km/h 25.7 km/h 43% 0.0 mm CLR
15:05 29.1 °C 14.9 °C 1009.3 hPa SE 12.9 km/h 29.0 km/h 42% 0.0 mm CLR
15:10 29.1 °C 14.9 °C 1009.3 hPa SE 16.1 km/h 27.4 km/h 42% 0.0 mm CLR
15:15 29.1 °C 14.9 °C 1009.3 hPa SE 16.1 km/h 24.1 km/h 42% 0.0 mm CLR
15:20 29.1 °C 15.9 °C 1009.3 hPa SE 11.3 km/h 32.2 km/h 45% 0.0 mm CLR
15:25 29.3 °C 15.4 °C 1009.3 hPa SE 11.3 km/h 35.4 km/h 43% 0.0 mm CLR
15:30 29.7 °C 15.4 °C 1009.3 hPa SE 14.5 km/h 22.5 km/h 42% 0.0 mm CLR
15:35 29.6 °C 15.3 °C 1009.1 hPa SSE 14.5 km/h 24.1 km/h 42% 0.0 mm CLR
15:40 29.1 °C 14.9 °C 1009.1 hPa SSE 16.1 km/h 32.2 km/h 42% 0.0 mm CLR
15:45 29.1 °C 14.8 °C 1009.1 hPa SSE 16.1 km/h 25.7 km/h 42% 0.0 mm CLR
15:50 29.1 °C 14.5 °C 1009.1 hPa East 16.4 km/h 22.2 km/h 41% 0.0 mm CLR
15:55 29.3 °C 14.7 °C 1009.1 hPa SE 16.1 km/h 25.7 km/h 41% 0.0 mm CLR
16:00 29.5 °C 14.5 °C 1009.1 hPa SE 14.5 km/h 27.4 km/h 40% 0.0 mm CLR
16:05 29.4 °C 14.0 °C 1009.2 hPa SE 14.5 km/h 30.6 km/h 39% 0.0 mm CLR
16:10 29.3 °C 13.9 °C 1009.2 hPa SE 16.1 km/h 25.7 km/h 39% 0.0 mm CLR
16:15 29.4 °C 14.4 °C 1009.2 hPa SE 16.1 km/h 27.4 km/h 40% 0.0 mm CLR
16:20 29.4 °C 14.4 °C 1009.1 hPa ESE 16.1 km/h 27.4 km/h 40% 0.0 mm CLR
16:25 29.4 °C 14.0 °C 1009.1 hPa SE 16.1 km/h 33.8 km/h 39% 0.0 mm CLR
16:30 29.2 °C 13.8 °C 1009.1 hPa SE 16.1 km/h 30.6 km/h 39% 0.0 mm CLR
16:35 29.2 °C 13.8 °C 1009.0 hPa SE 16.1 km/h 27.4 km/h 39% 0.0 mm CLR
16:40 29.3 °C 13.9 °C 1009.0 hPa SE 19.3 km/h 25.7 km/h 39% 0.0 mm CLR
16:45 29.3 °C 13.5 °C 1009.0 hPa SE 19.3 km/h 27.4 km/h 38% 0.0 mm CLR
16:50 29.3 °C 13.5 °C 1008.9 hPa SE 16.1 km/h 30.6 km/h 38% 0.0 mm CLR
16:55 29.3 °C 13.5 °C 1008.9 hPa SE 16.1 km/h 30.6 km/h 38% 0.0 mm CLR
17:00 29.2 °C 13.4 °C 1008.9 hPa SE 19.3 km/h 27.4 km/h 38% 0.0 mm CLR
17:05 29.2 °C 13.4 °C 1008.9 hPa SE 19.3 km/h 27.4 km/h 38% 0.0 mm CLR
17:10 29.2 °C 13.4 °C 1008.9 hPa SE 19.3 km/h 29.0 km/h 38% 0.0 mm CLR
17:15 29.4 °C 13.2 °C 1008.9 hPa SE 19.3 km/h 25.7 km/h 37% 0.0 mm CLR
17:20 29.4 °C 13.2 °C 1008.8 hPa SE 14.5 km/h 22.5 km/h 37% 0.0 mm CLR
17:25 29.4 °C 13.2 °C 1008.8 hPa SE 14.5 km/h 24.1 km/h 37% 0.0 mm CLR
17:30 29.6 °C 13.4 °C 1008.8 hPa SE 12.9 km/h 25.7 km/h 37% 0.0 mm CLR
17:35 29.4 °C 13.2 °C 1008.8 hPa ESE 12.9 km/h 27.4 km/h 37% 0.0 mm CLR
17:40 29.6 °C 13.3 °C 1008.8 hPa ESE 14.5 km/h 24.1 km/h 37% 0.0 mm CLR
17:45 29.4 °C 13.2 °C 1008.8 hPa SE 14.5 km/h 24.1 km/h 37% 0.0 mm CLR
17:50 29.3 °C 13.5 °C 1008.7 hPa SE 14.5 km/h 24.1 km/h 38% 0.0 mm CLR
17:55 29.4 °C 13.7 °C 1008.7 hPa SE 14.5 km/h 24.1 km/h 38% 0.0 mm CLR
18:00 29.5 °C 13.7 °C 1008.7 hPa ESE 14.5 km/h 33.8 km/h 38% 0.0 mm CLR
18:05 29.2 °C 13.4 °C 1008.7 hPa ESE 14.5 km/h 35.4 km/h 38% 0.0 mm CLR
18:10 29.1 °C 13.3 °C 1008.7 hPa ESE 20.9 km/h 29.0 km/h 38% 0.0 mm CLR
18:15 29.0 °C 13.3 °C 1008.7 hPa ESE 20.9 km/h 32.2 km/h 38% 0.0 mm CLR
18:20 28.8 °C 13.1 °C 1008.7 hPa ESE 20.9 km/h 27.4 km/h 38% 0.0 mm CLR
18:25 28.8 °C 13.1 °C 1008.7 hPa ESE 20.9 km/h 30.6 km/h 38% 0.0 mm CLR
18:30 28.9 °C 13.1 °C 1008.7 hPa ESE 16.1 km/h 25.7 km/h 38% 0.0 mm CLR
18:35 29.1 °C 12.9 °C 1008.6 hPa ESE 16.1 km/h 29.0 km/h 37% 0.0 mm CLR
18:40 29.0 °C 12.4 °C 1008.6 hPa SE 14.5 km/h 27.4 km/h 36% 0.0 mm CLR
18:45 28.9 °C 12.3 °C 1008.6 hPa SE 14.5 km/h 29.0 km/h 36% 0.0 mm CLR
18:50 28.8 °C 12.2 °C 1008.6 hPa SE 16.1 km/h 24.1 km/h 36% 0.0 mm CLR
18:55 28.8 °C 12.7 °C 1008.6 hPa SE 16.1 km/h 22.5 km/h 37% 0.0 mm CLR
19:00 28.8 °C 12.7 °C 1008.6 hPa ESE 14.5 km/h 25.7 km/h 37% 0.0 mm CLR
19:05 28.8 °C 12.2 °C 1008.7 hPa ESE 14.5 km/h 25.7 km/h 36% 0.0 mm CLR
19:10 28.5 °C 12.4 °C 1008.7 hPa ESE 14.5 km/h 27.4 km/h 37% 0.0 mm CLR
19:15 28.3 °C 12.2 °C 1008.7 hPa ESE 14.5 km/h 25.7 km/h 37% 0.0 mm CLR
19:20 28.3 °C 12.3 °C 1008.8 hPa ESE 16.1 km/h 22.5 km/h 37% 0.0 mm CLR
19:25 28.3 °C 12.2 °C 1008.8 hPa ESE 16.1 km/h 29.0 km/h 37% 0.0 mm CLR
19:30 28.2 °C 12.6 °C 1008.8 hPa SE 17.2 km/h 14.8 km/h 38% 0.0 mm CLR
19:35 28.3 °C 12.6 °C 1008.8 hPa ESE 16.1 km/h 24.1 km/h 38% 0.0 mm CLR
19:40 28.3 °C 12.6 °C 1008.8 hPa ESE 12.9 km/h 24.1 km/h 38% 0.0 mm CLR
19:45 28.2 °C 12.6 °C 1008.8 hPa ESE 12.9 km/h 22.5 km/h 38% 0.0 mm CLR
19:50 28.2 °C 12.6 °C 1008.9 hPa ESE 14.5 km/h 24.1 km/h 38% 0.0 mm CLR
19:55 28.2 °C 12.6 °C 1008.9 hPa ESE 14.5 km/h 24.1 km/h 38% 0.0 mm CLR
20:00 28.3 °C 12.7 °C 1008.9 hPa ESE 11.3 km/h 16.1 km/h 38% 0.0 mm CLR
20:05 28.3 °C 12.6 °C 1009.1 hPa ESE 11.3 km/h 19.3 km/h 38% 0.0 mm CLR
20:10 28.3 °C 12.6 °C 1009.1 hPa ESE 9.7 km/h 16.1 km/h 38% 0.0 mm CLR
20:15 28.2 °C 12.6 °C 1009.1 hPa ESE 9.7 km/h 14.5 km/h 38% 0.0 mm CLR
20:20 28.0 °C 12.3 °C 1009.2 hPa ESE 11.3 km/h 20.9 km/h 38% 0.0 mm CLR
20:25 27.8 °C 12.6 °C 1009.2 hPa ESE 11.3 km/h 19.3 km/h 39% 0.0 mm CLR
20:30 27.7 °C 12.5 °C 1009.2 hPa ESE 11.3 km/h 19.3 km/h 39% 0.0 mm CLR
20:35 27.6 °C 12.4 °C 1009.3 hPa SE 11.9 km/h 16.7 km/h 39% 0.0 mm CLR
20:40 27.4 °C 12.6 °C 1009.3 hPa ESE 11.3 km/h 14.5 km/h 40% 0.0 mm CLR
20:45 27.3 °C 12.6 °C 1009.3 hPa ESE 11.3 km/h 14.5 km/h 40% 0.0 mm CLR
20:49 27.3 °C 12.5 °C 1009.4 hPa ESE 9.5 km/h 13.0 km/h 40% 0.0 mm CLR
20:55 27.3 °C 12.9 °C 1009.4 hPa ESE 9.7 km/h 14.5 km/h 41% 0.0 mm CLR
20:59 27.2 °C 12.8 °C 1009.4 hPa ESE 10.0 km/h 18.5 km/h 41% 0.0 mm CLR
21:05 27.1 °C 12.7 °C 1009.6 hPa ESE 9.7 km/h 14.5 km/h 41% 0.0 mm CLR
21:10 26.9 °C 12.9 °C 1009.6 hPa ESE 9.7 km/h 16.1 km/h 42% 0.0 mm CLR
21:15 26.8 °C 12.8 °C 1009.6 hPa ESE 9.7 km/h 14.5 km/h 42% 0.0 mm CLR
21:20 26.7 °C 12.7 °C 1009.6 hPa ESE 9.7 km/h 12.9 km/h 42% 0.0 mm CLR
21:25 26.7 °C 13.1 °C 1009.6 hPa ESE 9.7 km/h 9.7 km/h 43% 0.0 mm CLR
21:30 26.6 °C 13.0 °C 1009.6 hPa ESE 4.8 km/h 11.3 km/h 43% 0.0 mm CLR
21:35 26.4 °C 12.9 °C 1009.7 hPa ESE 4.8 km/h 11.3 km/h 43% 0.0 mm CLR
21:40 26.2 °C 13.0 °C 1009.7 hPa ESE 8.0 km/h 12.9 km/h 44% 0.0 mm CLR
21:45 26.1 °C 12.9 °C 1009.7 hPa ESE 8.0 km/h 11.3 km/h 44% 0.0 mm CLR
21:50 26.1 °C 13.2 °C 1009.9 hPa SE 8.0 km/h 9.7 km/h 45% 0.0 mm CLR
21:55 26.0 °C 13.2 °C 1009.9 hPa SE 6.4 km/h 11.1 km/h 45% 0.0 mm CLR
22:00 25.8 °C 12.9 °C 1009.9 hPa SE 8.0 km/h 12.9 km/h 45% 0.0 mm CLR
22:05 25.8 °C 13.3 °C 1010.2 hPa SE 8.0 km/h 9.7 km/h 46% 0.0 mm CLR
22:10 25.8 °C 13.3 °C 1010.2 hPa SSE 4.8 km/h 8.0 km/h 46% 0.0 mm CLR
22:15 25.8 °C 13.3 °C 1010.2 hPa SSE 4.8 km/h 4.8 km/h 46% 0.0 mm CLR
22:20 25.8 °C 13.3 °C 1010.4 hPa SE 3.2 km/h   46% 0.0 mm CLR
22:25 25.8 °C 12.6 °C 1010.4 hPa SSE 3.2 km/h 9.7 km/h 44% 0.0 mm CLR
22:30 25.9 °C 12.3 °C 1010.4 hPa SW 3.2 km/h 8.0 km/h 43% 0.0 mm CLR
22:35 26.1 °C 12.5 °C 1010.5 hPa WSW 3.2 km/h 8.0 km/h 43% 0.0 mm CLR
22:40 26.1 °C 12.2 °C 1010.5 hPa SW 3.2 km/h 11.3 km/h 42% 0.0 mm CLR
22:45 25.9 °C 12.1 °C 1010.5 hPa WSW 3.2 km/h 11.3 km/h 42% 0.0 mm CLR
22:50 25.8 °C 11.9 °C 1010.8 hPa West 8.0 km/h 11.3 km/h 42% 0.0 mm CLR
22:55 25.6 °C 12.1 °C 1010.8 hPa West 8.0 km/h 12.9 km/h 43% 0.0 mm CLR
23:00 25.4 °C 11.9 °C 1010.8 hPa West 8.0 km/h 11.3 km/h 43% 0.0 mm CLR
23:05 25.2 °C 12.1 °C 1011.0 hPa West 8.0 km/h 11.3 km/h 44% 0.0 mm CLR
23:10 25.1 °C 12.0 °C 1011.0 hPa WSW 8.0 km/h 14.5 km/h 44% 0.0 mm CLR
23:15 25.1 °C 12.0 °C 1011.0 hPa SW 8.0 km/h 16.1 km/h 44% 0.0 mm CLR
23:20 25.0 °C 11.9 °C 1011.1 hPa SW 8.0 km/h 14.5 km/h 44% 0.0 mm CLR
23:25 24.9 °C 11.8 °C 1011.1 hPa SW 8.0 km/h 14.5 km/h 44% 0.0 mm CLR
23:30 24.9 °C 11.8 °C 1011.1 hPa SW 8.0 km/h 14.5 km/h 44% 0.0 mm CLR
23:35 24.9 °C 11.8 °C 1011.2 hPa SSW 8.0 km/h 14.5 km/h 44% 0.0 mm CLR
23:40 24.8 °C 12.1 °C 1011.2 hPa SSW 10.0 km/h 11.1 km/h 45% 0.0 mm CLR
23:45 24.7 °C 12.0 °C 1011.2 hPa SW 9.7 km/h 14.5 km/h 45% 0.0 mm CLR
23:50 24.7 °C 11.9 °C 1011.5 hPa SSW 8.0 km/h 11.3 km/h 45% 0.0 mm CLR
23:55 24.6 °C 12.2 °C 1011.5 hPa SSW 8.0 km/h 16.1 km/h 46% 0.0 mm CLR
Murcia-Puente Tocinos, España
Compliments of Weather Underground - 2.75 mb

La estación de MeteoMurcia.com, publica sus datos en los siguientes proyectos:

Weather Underground PWS IMURCIAP2 Meteoclimatic www.awekas.at

W3Counter
Web Analytics